Regional Weather Roundup
Issued by NWS Sterling, VA

Home | Current Version | Previous Version | Graphics & Text | Print | Product List | Glossary On
Versions: 1 2 3 4 5 6 7 8 9 10 11 12 13 14 15 16 17 18 19 20 21 22 23 24 25 26 27
000
ASUS41 KLWX 180011
RWRLWX

REGIONAL WEATHER ROUNDUP
NATIONAL WEATHER SERVICE BALTIMORE MD/WASHINGTON DC
700 PM EST WED JAN 17 2018

Note: "FAIR" indicates few or no clouds below 12,000 feet
with no significant weather and/or obstructions to visibility.
 TC=TEMPERATURE CELSIUS

 * =Non NWS site. Station does not report precipitation (e.g. rain,
    snow, etc.), thunder, or fog.

DCZ001-MDZ009-015-VAZ040>042-051-053>054-180100-
WASHINGTON METRO

CITY           SKY/WX    TMP DP  RH WIND       PRES   REMARKS
WASHINGTON NAT FAIR      24   8  50 N16       30.33S WCI  11
DULLES         FAIR      22   7  52 NW13      30.32F WCI  10
ANDREWS AFB    FAIR      23   7  50 NW13      30.29F WCI  11
FT BELVOIR     FAIR      24   6  47 NW9       30.32S WCI  14
COLLEGE PARK*  FAIR      23   6  48 NW8       30.31S WCI  13
LEESBURG*      FAIR      23  10  58 N12       30.32F WCI  12
MANASSAS*      FAIR      20   8  60 N9        30.33S WCI   9
GAITHERSBURG*  FAIR      19   7  59 NW8       30.29F WCI   9

$$

MDZ006>007-011-014-180100-
BALTIMORE METRO

CITY           SKY/WX    TMP DP  RH WIND       PRES   REMARKS
BWI AIRPORT    FAIR      22   8  55 NW9       30.29F WCI  12
MD SCIENCE CTR   N/A     25   7  46 MISG      30.31R
MARTIN STATE   PTCLDY    23  10  58 NW14      30.33R WCI  11
ANNAPOLIS      FAIR      28  12  51 NW14      30.29F WCI  17
FORT MEADE*    FAIR      23  10  58 NW6       30.32F WCI  16

$$

MDZ012-015-019>023-180100-
MARYLAND EASTERN SHORE

CITY           SKY/WX    TMP DP  RH WIND       PRES   REMARKS
OCEAN CITY     CLOUDY    26  13  57 NW13      30.25R WCI  15
SALISBURY      CLOUDY    26  13  57 NW15      30.26R WCI  14
BAY BRIDGE AP* FAIR      25  10  54 MISG      30.29F
CAMBRIDGE*     CLOUDY    25   9  50 NW23      30.28S WCI  10
EASTON*        MOCLDY    25  10  54 N14G22    30.30F WCI  13

$$

MDZ017>025-180100-
SOUTHERN MARYLAND

CITY           SKY/WX    TMP DP  RH WIND       PRES   REMARKS
PATUXENT RIVER CLOUDY    26   9  48 NW20      30.29R WCI  12
ST INIGOES     CLOUDY    26   8  46 NW8       30.29R WCI  18
LEONARDTOWN*   CLOUDY    27  10  50 NW9G16    30.31R WCI  17

$$

MDZ003>005-180100-
NORTH CENTRAL MARYLAND

CITY           SKY/WX    TMP DP  RH WIND       PRES   REMARKS
FREDERICK*     CLEAR     21   3  45 NW8       30.36S WCI  12
HAGERSTOWN APT FAIR      17   6  62 NW9       30.31S WCI   6
WESTMINSTER*   FAIR      18   9  68 NW5       30.27S WCI  11

$$

MDZ501>502-180100-
WESTERN MARYLAND

CITY           SKY/WX    TMP DP  RH WIND       PRES   REMARKS
OAKLAND*       CLOUDY     3   1  92 W9        30.18S WCI -11
CUMBERLAND*    FAIR      16   5  62 NW10      30.41S WCI   3

$$

VAZ025>031-180100-
SHENANDOAH VALLEY

CITY           SKY/WX    TMP DP  RH WIND       PRES   REMARKS
WINCHESTER*    FAIR      19   5  53 NW13G18   30.33S WCI   7
FRONT ROYAL*   FAIR      21   5  49 N6        30.31S WCI  14
LURAY*         FAIR      23   9  54 NW9       30.30S WCI  13
NEW MARKET*    FAIR      19   1  44 N5        30.29S WCI  13
STAUNTON*      CLOUDY    21   7  53 NE10      30.29R WCI  10
WAYNESBORO*    CLOUDY    22   5  48 N7G17     30.24R WCI  13

$$

WVZ021-048>050-054>055-180100-
EASTERN WEST VIRGINIA PANHANDLE

CITY           SKY/WX    TMP DP  RH WIND       PRES   REMARKS
MARTINSBURG    FAIR      19   5  54 NW10      30.33R WCI   7
PETERSBURG*    FAIR      15   3  59 N7        30.34S WCI   5

$$

VAZ036>039-050-180100-
CENTRAL FOOTHILLS

CITY           SKY/WX    TMP DP  RH WIND       PRES   REMARKS
CHARLOTTESVILL CLOUDY    27   6  41 N6        30.28R WCI  20
CULPEPER*      FAIR      24   3  39 N10G16    30.33R WCI  14
ORANGE*        FAIR      23   7  50 CALM      30.30S
GORDONSVILLE*  CLOUDY    22   8  54 CALM      30.29F
WARRENTON*     FAIR      24   3  40 N6        30.31S WCI  17

$$

VAZ055>057-180100-
NORTH AND CENTRAL PIEDMONT

CITY           SKY/WX    TMP DP  RH WIND       PRES   REMARKS
FREDERICKSBRG* FAIR      25  10  52 N6        30.32F WCI  18
STAFFORD*      FAIR      22   8  55 NW6       30.37R WCI  14

$$

NCZ024-NYZ072-PAZ021-071-VAZ022-071-180100-
OTHER REGIONAL OBSERVATIONS

CITY           SKY/WX    TMP DP  RH WIND       PRES   REMARKS
NEW YORK CITY  FAIR      27  16  63 NW12G18   30.19F WCI  17
PHILADELPHIA   CLOUDY    25  10  53 NW12G22   30.26R WCI  14
PITTSBURGH     FAIR      10   5  80 SW7       30.36F WCI  -1
ROANOKE        MOCLDY    21   6  52 NW9       30.29R WCI  11
RICHMOND       LGT SNOW  22  14  71 N17       30.29S WCI   8
RALEIGH        LGT SNOW  26  24  92 NE10      30.24R FOG     WCI  16

$$

ANZ530>537-180100-
MARINE OBSERVATIONS

STATION/POSITION TIME  TEMP    WIND        PRES
                       AIR SEA DIR/SP/G
                 (UTC) (F)     (DEG/KT/KT) (MB)
THOMAS PT LIGHT  0000   25 31  340/ 19/ 22   N/A
BALT KEY BRIDGE  2342                      1026.2S
COVE POINT       2342                      1026.3R
LEWISETTA        2342      33              1025.9R
SOLOMONS ISLAND  2342      34              1025.5R
PINEY POINT      2324           10/ 14/ 15   N/A

$$





USA.gov is the U.S. government's official web portal to all federal, state and local government web resources and services.